Date,TemperatureHighF,TemperatureAvgF,TemperatureLowF,DewpointHighF,DewpointAvgF,DewpointLowF,HumidityHigh,HumidityAvg,HumidityLow,PressureMaxIn,PressureMinIn,WindSpeedMaxMPH,WindSpeedAvgMPH,GustSpeedMaxMPH,PrecipitationSumIn
2013-1-1,54.4,49.5,42.8,50.7,46.8,40.1,97,91,74,30.14,29.90,5,0,6,0.02
2013-1-2,59.3,52.7,47.6,53.0,50.0,43.8,98,91,73,30.10,29.87,5,0,11,0.04
2013-1-3,48.3,44.9,41.3,44.2,42.0,39.4,94,89,82,30.26,30.06,5,0,6,0.01
2013-1-4,55.2,40.8,29.9,39.5,32.7,23.1,97,75,44,30.35,30.23,7,1,12,0.01
2013-1-5,52.8,39.3,25.0,41.3,28.5,21.9,91,68,37,30.40,30.24,6,0,8,0.32
2013-1-6,52.3,46.7,41.3,43.7,39.5,35.0,86,76,64,30.25,30.08,14,1,15,0.02
2013-1-7,56.1,41.9,30.4,36.5,32.7,28.6,95,73,43,30.38,30.20,5,0,8,0.04
2013-1-8,54.1,42.7,29.3,45.2,37.5,26.8,94,82,69,30.41,30.30,5,0,6,0.45
2013-1-9,68.5,53.9,40.9,55.7,48.1,38.4,94,82,62,30.43,30.32,6,0,8,0.03
2013-1-10,75.7,59.4,44.4,59.5,52.6,42.8,100,81,49,30.42,30.26,11,1,16,0.01
2013-1-11,73.8,65.4,60.0,65.2,62.3,59.0,98,90,72,30.26,30.08,13,4,17,0.04
2013-1-12,78.2,68.1,58.7,64.4,60.3,57.5,98,78,52,30.14,30.04,13,2,16,0.01
2013-1-13,76.1,67.0,60.1,64.1,60.7,57.2,91,81,63,30.10,30.01,13,4,19,0.01
2013-1-14,77.2,69.4,64.5,65.2,62.3,60.8,89,79,62,30.09,30.01,22,6,29,0.00
2013-1-15,76.5,68.2,60.5,61.7,59.9,57.6,91,75,55,30.08,29.94,16,4,19,0.00
2013-1-16,67.2,61.7,56.9,65.6,59.7,56.1,97,93,82,29.97,29.90,12,2,13,0.00
2013-1-17,65.5,52.8,41.6,64.3,50.8,38.0,99,93,78,30.17,29.69,20,4,29,0.03
2013-1-18,55.5,41.7,31.3,39.0,32.4,27.4,97,74,37,30.48,30.18,8,1,10,0.04
2013-1-19,59.5,42.1,25.5,41.0,32.9,23.5,94,73,39,30.47,30.20,10,1,11,0.23
2013-1-20,65.5,49.4,34.0,40.6,36.8,31.4,94,65,38,30.19,30.04,9,1,14,0.00
2013-1-21,62.6,47.9,32.4,39.0,32.1,22.7,93,58,32,30.09,29.97,12,1,19,0.01
2013-1-22,49.9,40.6,32.4,22.7,18.5,15.4,58,42,26,30.27,30.07,13,2,18,0.04
2013-1-23,54.6,40.9,28.3,35.6,24.6,16.0,72,53,37,30.35,30.13,13,2,19,0.19
2013-1-24,61.9,51.0,35.6,42.2,29.4,9.9,79,49,14,30.40,30.06,11,3,19,0.04
2013-1-25,36.5,33.0,29.2,23.9,17.0,10.4,65,52,39,30.45,30.14,5,1,8,0.01
2013-1-26,61.4,44.4,33.8,38.9,33.0,23.4,89,66,42,30.28,30.10,6,1,7,0.02
2013-1-27,54.1,42.6,30.6,32.8,31.0,27.7,92,66,42,30.50,30.28,10,1,12,0.00
2013-1-28,58.6,46.0,40.3,46.9,38.0,30.7,92,74,60,30.43,30.27,4,0,5,0.00
2013-1-29,74.2,56.4,36.8,62.2,50.6,35.0,95,82,62,30.26,29.99,15,2,15,0.00
2013-1-30,74.0,65.9,49.1,65.1,60.6,47.2,95,84,70,30.00,29.46,31,10,34,0.51
2013-1-31,51.6,43.7,36.1,47.3,28.8,22.0,93,58,32,30.14,29.67,22,5,28,0.00
2013-2-1,48.1,40.6,28.2,30.6,18.3,6.3,66,44,19,30.34,30.07,15,3,21,0.00
2013-2-2,55.5,38.3,20.1,40.1,20.2,11.8,92,54,21,30.36,30.08,14,2,25,0.00
2013-2-3,59.7,45.6,35.4,40.5,33.4,26.2,98,67,28,30.08,29.90,20,3,26,0.01
2013-2-4,50.6,40.9,29.6,34.5,29.9,25.8,87,66,41,30.13,30.01,7,1,10,0.00
2013-2-5,64.5,48.7,30.7,49.0,40.5,28.0,92,75,56,30.02,29.94,13,1,17,0.00
2013-2-6,71.6,53.3,39.6,48.0,38.9,29.9,97,66,23,30.14,30.00,5,1,11,0.00
2013-2-7,47.2,43.2,37.1,43.8,40.0,33.4,96,89,71,30.14,29.88,11,3,16,0.94
2013-2-8,60.4,49.3,43.0,50.5,44.8,38.1,95,85,68,30.10,29.88,10,1,12,0.11
2013-2-9,63.8,44.3,29.7,37.8,32.8,27.9,96,70,27,30.28,30.09,8,1,10,0.00
2013-2-10,65.4,50.3,34.9,53.5,41.7,31.6,96,74,48,30.37,30.07,19,3,19,0.23
2013-2-11,67.2,59.2,52.6,62.7,57.1,51.5,97,93,82,30.16,29.99,21,5,27,0.35
2013-2-12,59.3,52.6,47.5,52.3,47.9,42.6,95,85,55,30.09,29.85,6,1,7,0.10
2013-2-13,53.0,48.5,43.9,50.2,46.0,38.8,97,91,75,29.88,29.69,12,2,16,0.06
2013-2-14,52.8,42.0,31.2,42.1,36.5,29.7,96,82,56,30.08,29.88,8,0,9,0.04
2013-2-15,64.6,45.8,30.1,41.5,35.3,28.6,100,72,31,30.10,29.94,7,1,11,0.14
2013-2-16,48.7,41.0,31.1,39.7,29.4,14.4,94,67,31,30.07,29.83,15,2,20,0.06
2013-2-17,47.4,35.2,25.5,19.4,14.4,10.3,61,44,23,30.28,30.08,12,2,19,0.00
2013-2-18,58.0,41.9,24.5,28.4,23.3,16.6,86,52,27,30.38,30.19,17,3,18,0.00
2013-2-19,57.1,45.3,39.0,48.3,36.8,25.9,96,74,47,30.19,29.95,13,2,20,0.23
2013-2-20,58.6,44.9,31.6,28.3,21.8,16.1,66,42,21,30.14,30.04,10,1,15,0.00
2013-2-21,64.9,47.8,28.9,34.7,26.2,12.9,85,48,14,30.18,30.01,7,1,11,0.00
2013-2-22,52.7,42.5,39.3,41.2,38.6,34.5,98,88,50,30.16,30.07,6,2,7,0.76
2013-2-23,45.1,42.3,39.2,44.3,41.4,38.2,98,97,96,30.09,29.82,6,1,9,0.89
2013-2-24,68.6,52.5,40.8,48.0,42.9,35.7,98,75,30,29.98,29.86,8,1,13,0.19
2013-2-25,48.5,44.4,38.3,39.0,34.8,31.4,94,70,53,30.06,29.91,8,1,12,0.00
2013-2-26,46.5,41.3,37.0,45.4,40.1,35.5,97,96,93,29.94,29.57,7,1,12,0.22
2013-2-27,61.0,48.4,38.0,40.9,38.0,35.6,92,70,41,29.86,29.73,15,3,21,0.11
2013-2-28,52.6,44.3,35.9,37.1,32.6,27.1,82,64,47,29.92,29.78,14,3,21,0.05
2013-3-1,55.0,40.5,29.5,33.0,29.3,25.7,88,66,41,29.97,29.85,13,2,14,0.34
2013-3-2,47.2,39.5,35.1,37.2,31.6,27.0,92,74,52,29.94,29.86,11,2,14,0.01
2013-3-3,47.9,37.8,29.9,27.1,22.5,20.6,72,55,35,30.03,29.91,12,2,15,0.00
2013-3-4,60.4,42.1,23.7,36.1,25.1,18.9,85,55,24,30.18,30.02,7,1,11,0.00
2013-3-5,69.4,53.7,37.6,57.0,43.8,31.3,94,69,53,30.07,29.64,26,6,27,0.15
2013-3-6,48.4,40.0,34.0,34.3,26.8,22.7,78,59,44,30.12,29.78,20,4,22,0.00
2013-3-7,61.1,42.1,27.1,38.2,30.6,24.3,92,68,34,30.24,30.11,7,1,14,0.00
2013-3-8,61.8,46.0,31.4,33.7,29.2,25.1,84,55,25,30.30,30.16,8,1,10,0.00
2013-3-9,65.4,47.1,29.5,38.7,31.8,26.6,90,61,28,30.33,30.20,7,1,11,0.00
2013-3-10,70.6,55.6,38.9,48.7,41.1,34.8,87,61,35,30.25,30.09,14,2,16,0.00
2013-3-11,68.8,59.4,49.8,56.6,50.7,44.2,95,74,59,30.12,29.78,18,6,26,0.22
2013-3-12,67.9,57.3,45.6,58.4,46.2,33.0,96,71,34,30.00,29.73,18,3,20,0.44
2013-3-13,59.7,49.4,36.7,35.4,28.4,21.6,82,48,23,30.17,30.00,14,3,29,0.00
2013-3-14,57.0,43.1,29.0,29.2,23.0,20.4,75,47,26,30.31,30.16,10,1,13,0.00
2013-3-15,72.6,54.2,32.8,42.3,33.8,22.9,80,49,31,30.20,29.95,18,3,22,0.00
2013-3-16,79.1,65.4,53.1,46.6,42.6,37.5,71,46,23,29.98,29.81,20,6,29,0.00
2013-3-17,73.8,63.7,54.3,55.3,50.1,41.3,82,62,47,29.98,29.87,15,4,18,0.00
2013-3-18,61.6,54.2,46.1,55.8,49.6,44.3,96,85,77,30.03,29.80,25,2,25,0.42
2013-3-19,71.0,55.6,45.4,50.0,38.5,21.4,98,62,16,30.02,29.84,11,2,16,0.01
2013-3-20,60.5,48.5,34.9,35.9,28.1,17.5,87,50,23,30.10,29.84,13,2,17,0.00
2013-3-21,52.6,43.8,35.3,29.6,19.0,6.0,64,40,19,29.95,29.82,12,2,21,0.00
2013-3-22,49.8,41.4,31.0,37.4,25.8,18.9,78,55,37,30.07,29.95,8,1,11,0.00
2013-3-23,50.5,46.5,42.6,48.3,43.6,36.0,99,90,69,30.03,29.85,15,1,21,0.65
2013-3-24,48.8,47.0,45.6,47.6,45.7,43.6,97,95,91,29.85,29.54,12,2,14,0.39
2013-3-25,47.6,42.6,37.0,45.0,28.1,22.8,97,57,40,30.00,29.59,23,5,31,0.18
2013-3-26,48.7,39.5,30.9,28.3,26.0,23.8,79,59,42,30.21,29.97,14,3,19,0.52
2013-3-27,57.5,41.9,27.1,31.1,26.0,23.7,87,58,28,30.30,30.17,13,2,15,0.00
2013-3-28,63.2,46.2,28.4,32.7,27.3,22.1,88,53,23,30.32,30.15,10,1,12,0.00
2013-3-29,66.7,50.7,30.3,35.9,30.2,24.0,87,50,25,30.33,30.16,8,1,10,0.00
2013-3-30,73.9,60.3,48.5,55.2,43.4,35.0,92,55,35,30.19,29.99,8,1,17,0.08
2013-3-31,72.9,62.5,55.8,63.0,57.3,54.3,96,84,55,30.01,29.82,17,4,22,0.12
2013-4-1,75.6,64.0,54.7,59.3,51.5,37.6,98,70,26,29.95,29.81,11,2,13,0.50
2013-4-2,72.1,58.2,42.6,45.4,40.8,30.9,90,57,26,30.11,29.95,8,2,23,0.02
2013-4-3,62.7,55.1,44.6,42.2,34.7,28.7,78,48,33,30.19,30.05,7,1,11,0.00
2013-4-4,52.2,44.2,39.1,44.4,41.4,37.6,95,90,63,30.15,29.95,10,2,11,0.06
2013-4-5,63.1,48.2,37.2,48.7,42.2,36.2,97,81,54,30.02,29.89,11,2,11,0.08
2013-4-6,73.3,55.1,35.1,47.3,38.8,32.9,97,62,23,30.18,30.02,17,1,17,0.06
2013-4-7,75.9,61.0,41.6,54.2,48.9,38.8,94,66,43,30.20,30.05,21,3,21,0.03
2013-4-8,80.2,68.1,57.1,56.6,54.3,52.0,89,64,38,30.13,30.02,14,4,21,0.04
2013-4-9,84.7,71.2,57.9,63.0,58.0,53.9,92,65,40,30.17,30.06,9,3,13,0.01
2013-4-10,85.3,73.2,61.8,61.4,59.1,55.1,88,63,36,30.09,29.91,13,5,17,0.00
2013-4-11,80.8,70.4,62.8,70.0,64.5,58.3,95,83,62,29.93,29.69,13,6,23,0.00
2013-4-12,77.3,68.3,57.4,68.5,57.2,42.4,96,72,31,29.84,29.64,24,4,27,0.55
2013-4-13,78.8,62.7,46.7,50.1,43.9,40.3,85,54,26,29.98,29.84,8,1,11,0.01
2013-4-14,68.3,57.9,45.2,60.3,51.9,42.4,94,81,60,30.05,29.80,13,2,17,0.00
2013-4-15,74.8,65.2,58.2,62.9,60.3,56.5,98,85,61,30.12,29.91,8,1,12,0.01
2013-4-16,82.1,68.6,56.4,64.5,60.3,55.3,98,78,47,30.24,30.12,9,1,12,0.00
2013-4-17,85.9,71.3,57.2,64.6,61.2,55.0,96,73,44,30.20,30.06,9,1,11,0.00
2013-4-18,81.3,71.2,59.8,66.2,62.2,57.3,94,75,51,30.09,29.92,15,4,22,0.00
2013-4-19,79.2,66.1,49.4,68.7,61.5,47.2,96,86,65,29.94,29.77,23,7,31,0.34
2013-4-20,65.3,52.7,39.8,47.1,40.9,33.9,94,68,32,30.21,29.94,11,2,11,0.01
2013-4-21,70.2,55.2,38.4,49.8,42.1,36.6,96,66,35,30.34,30.21,10,1,16,0.00
2013-4-22,69.0,56.9,48.1,44.5,41.9,38.4,79,59,39,30.31,30.14,10,2,14,0.00
2013-4-23,74.9,56.8,40.6,53.1,45.9,37.9,97,70,39,30.21,30.07,7,1,10,0.00
2013-4-24,77.2,65.0,54.0,61.1,56.4,51.8,95,76,52,30.12,30.00,12,4,19,0.00
2013-4-25,77.4,66.4,53.4,60.5,52.2,37.7,91,65,25,30.22,30.04,12,1,13,0.00
2013-4-26,76.9,61.0,41.0,53.1,43.4,35.8,89,56,33,30.36,30.21,9,1,15,0.00
2013-4-27,66.9,59.6,51.2,59.1,53.8,48.0,95,82,60,30.33,30.17,8,1,9,0.22
2013-4-28,72.0,60.7,54.7,65.1,58.1,52.6,97,91,78,30.17,29.97,14,2,14,2.03
2013-4-29,69.2,62.1,57.5,63.3,60.1,55.8,98,94,80,30.03,29.91,6,1,10,0.12
2013-4-30,78.7,64.3,52.2,64.9,59.0,51.4,99,85,60,30.08,29.93,8,0,11,0.00
2013-5-1,69.2,63.0,59.0,60.1,57.7,55.8,94,83,66,30.18,30.07,8,1,14,0.00
2013-5-2,68.7,63.0,59.9,61.7,59.1,56.9,96,87,75,30.17,30.10,11,2,14,0.00
2013-5-3,66.1,60.8,56.8,60.9,57.6,54.7,96,89,79,30.11,29.98,6,1,11,0.05
2013-5-4,60.5,56.4,52.0,58.1,53.1,47.4,97,89,72,29.99,29.82,8,1,12,1.20
2013-5-5,68.8,60.0,56.1,63.8,57.5,54.1,97,92,65,29.85,29.72,7,0,17,1.14
2013-5-6,63.4,56.4,47.9,55.5,50.0,46.5,96,80,61,29.90,29.77,13,2,20,0.00
2013-5-7,69.5,60.4,52.3,54.4,52.2,50.0,95,76,54,29.93,29.83,10,2,13,0.00
2013-5-8,78.9,65.7,50.7,59.3,54.2,48.9,96,70,41,30.00,29.90,12,2,20,0.00
2013-5-9,84.0,70.0,56.4,65.1,58.8,54.2,94,71,40,30.06,29.97,6,1,9,0.00
2013-5-10,83.3,71.6,57.1,65.4,60.8,54.9,94,71,45,30.05,29.90,14,2,18,0.00
2013-5-11,79.6,70.6,60.8,66.3,62.9,58.5,93,77,59,29.96,29.82,10,2,17,0.00
2013-5-12,75.5,66.0,54.8,63.3,51.9,39.0,95,65,29,30.03,29.84,19,2,21,0.00
2013-5-13,71.5,58.1,43.4,43.5,39.3,34.5,87,54,26,30.17,30.02,8,1,13,0.00
2013-5-14,76.9,61.2,40.8,54.3,44.8,37.8,90,59,32,30.25,30.09,8,2,13,0.00
2013-5-15,88.0,74.3,59.8,62.7,57.4,51.1,80,57,39,30.11,29.95,12,4,14,0.00
2013-5-16,83.2,72.4,64.2,65.8,61.4,58.0,82,69,50,30.04,29.94,7,1,10,0.00
2013-5-17,84.7,72.0,57.7,66.4,60.8,54.5,92,70,45,30.08,29.97,8,1,11,0.00
2013-5-18,79.2,71.9,65.4,69.0,64.5,60.8,93,78,55,30.08,30.00,12,3,15,0.07
2013-5-19,75.4,70.5,67.2,68.8,67.2,66.0,97,90,77,30.08,29.99,8,2,11,0.10
2013-5-20,85.7,74.2,63.6,72.0,67.7,62.2,97,82,60,30.07,29.97,7,1,10,0.00
2013-5-21,87.9,74.3,66.3,72.8,67.4,62.8,98,81,55,30.02,29.89,9,2,13,0.00
2013-5-22,86.2,74.0,63.5,71.6,67.1,61.7,96,80,60,29.97,29.83,12,2,14,0.05
2013-5-23,84.4,74.1,66.7,69.6,65.4,60.2,97,77,47,29.92,29.82,8,1,16,0.10
2013-5-24,80.2,70.4,59.3,60.3,54.7,44.3,80,60,35,30.15,29.89,12,2,18,0.00
2013-5-25,78.6,63.5,45.6,55.6,47.2,41.3,92,59,34,30.29,30.14,10,1,12,0.00
2013-5-26,81.9,67.4,52.7,58.4,53.2,49.8,91,64,34,30.24,30.11,8,1,10,0.00
2013-5-27,87.0,72.9,55.2,64.2,58.6,52.4,92,64,39,30.20,30.08,10,2,12,0.00
2013-5-28,87.0,76.3,65.7,66.5,63.6,61.3,89,66,46,30.18,30.07,10,4,17,0.00
2013-5-29,87.2,74.9,59.8,66.5,62.8,57.5,94,68,41,30.20,30.09,12,2,12,0.00
2013-5-30,88.5,75.9,62.6,72.5,65.5,60.5,94,72,43,30.22,30.07,11,2,16,0.00
2013-5-31,88.1,77.3,65.4,69.9,67.0,62.7,96,73,50,30.18,30.04,11,2,12,0.00
2013-6-1,87.7,78.2,67.9,69.8,67.2,64.6,92,71,50,30.09,29.95,13,4,14,0.00
2013-6-2,85.5,75.8,70.1,74.4,69.4,66.1,91,81,64,30.01,29.84,13,4,15,0.00
2013-6-3,83.1,74.8,67.6,74.1,69.5,66.1,96,84,66,29.91,29.81,8,1,11,0.00
2013-6-4,88.6,77.9,68.0,72.8,69.3,64.8,96,77,51,29.98,29.88,9,1,13,0.00
2013-6-5,84.6,74.1,69.4,73.5,70.2,66.9,95,88,67,30.00,29.89,15,1,22,0.00
2013-6-6,76.4,72.0,69.0,71.9,69.9,67.9,97,93,83,29.91,29.71,12,2,12,0.74
2013-6-7,86.0,73.8,68.3,73.4,69.6,67.4,98,88,60,29.81,29.59,17,4,17,0.94
2013-6-8,84.7,75.2,68.3,71.4,68.5,66.7,97,81,59,30.04,29.80,8,2,13,0.00
2013-6-9,86.6,73.9,68.0,75.5,70.3,66.2,97,89,64,30.08,30.01,12,2,21,1.15
2013-6-10,81.3,73.3,70.9,74.0,70.8,68.0,97,92,70,30.04,29.91,15,5,24,0.29
2013-6-11,90.4,79.4,70.4,75.9,72.7,69.2,96,81,59,30.00,29.89,12,2,15,0.00
2013-6-12,94.8,82.7,70.6,78.4,73.1,68.7,96,75,46,29.98,29.89,7,1,10,0.00
2013-6-13,92.9,83.2,74.2,75.7,73.7,71.4,94,75,52,29.90,29.67,18,4,24,0.00
2013-6-14,85.7,76.3,68.0,72.4,64.0,59.0,96,69,43,29.97,29.73,7,1,11,0.00
2013-6-15,86.2,74.6,61.0,67.0,61.5,55.0,95,68,38,30.09,29.97,8,1,12,0.00
2013-6-16,86.9,77.2,66.6,71.5,67.7,63.7,91,74,49,30.13,29.98,10,3,13,0.00
2013-6-17,88.2,76.2,70.0,76.4,70.1,66.6,96,82,58,30.04,29.90,16,2,21,0.31
2013-6-18,86.2,73.6,68.5,75.8,70.8,66.1,97,91,69,29.93,29.80,16,4,30,0.72
2013-6-19,80.1,73.8,69.8,73.2,70.8,67.8,97,91,75,30.04,29.85,4,0,6,0.00
2013-6-20,76.6,68.1,64.5,69.3,66.0,63.1,98,93,77,30.14,30.03,5,0,8,0.00
2013-7-1,83.3,79.4,74.9,75.1,72.9,71.1,92,81,70,29.91,29.81,10,4,13,0.04
2013-7-2,83.4,76.3,71.8,75.2,72.2,70.0,95,88,72,30.07,29.90,12,4,17,0.04
2013-7-3,84.4,74.2,70.8,76.1,71.5,69.6,98,92,72,30.15,30.05,17,2,24,2.30
2013-7-4,84.1,74.1,69.3,77.8,71.7,68.7,99,93,75,30.15,30.06,15,4,28,1.09
2013-7-5,86.3,75.8,69.5,77.5,72.3,68.3,97,89,66,30.18,30.11,9,2,24,0.04
2013-7-6,87.3,78.1,73.5,76.2,73.5,72.0,96,87,64,30.16,30.06,18,4,18,0.28
2013-7-7,87.0,78.6,74.1,76.9,74.1,72.8,96,87,67,30.14,30.03,10,3,11,0.08
2013-7-8,88.2,78.2,71.8,77.2,73.5,70.7,98,86,66,30.16,30.06,11,2,14,0.05
2013-7-9,89.8,80.8,73.0,77.6,74.1,71.5,96,81,60,30.14,30.01,11,2,13,0.25
2013-7-10,82.1,75.9,71.6,78.3,73.9,70.1,98,94,83,30.10,29.92,11,2,16,0.92
2013-7-11,86.8,77.3,72.6,77.2,73.5,70.2,97,89,70,29.95,29.83,10,3,15,1.40
2013-7-12,86.0,76.7,71.7,76.4,72.8,69.9,98,89,65,29.92,29.82,8,1,13,0.35
2013-7-13,79.4,74.1,70.3,74.5,71.6,69.0,97,92,82,30.03,29.91,5,0,6,0.13
2013-7-14,82.1,75.0,71.0,75.8,72.6,69.7,97,93,75,30.19,30.03,23,2,24,0.54
2013-7-15,84.4,74.8,70.3,77.4,72.5,69.4,98,93,75,30.24,30.16,8,1,15,0.15
2013-7-16,90.6,78.2,67.7,76.2,72.1,67.1,99,84,55,30.27,30.18,8,0,8,0.00
2013-7-17,93.2,79.0,69.5,79.2,73.4,68.3,97,84,54,30.21,30.06,11,1,15,1.53
2013-7-18,89.1,77.8,67.5,77.3,72.6,66.6,99,85,63,30.17,30.01,6,0,7,0.01
2013-7-19,90.8,81.2,73.7,76.8,73.9,71.5,96,80,55,30.08,29.94,9,2,12,0.00
2013-7-20,86.4,78.4,73.9,76.6,73.3,71.2,93,85,69,30.02,29.89,10,4,13,0.00
2013-7-21,88.1,79.0,73.4,77.4,73.9,71.6,96,85,66,30.00,29.88,10,2,15,0.00
2013-7-22,86.5,77.8,71.3,77.0,72.6,69.9,96,85,67,29.98,29.84,12,3,14,0.00
2013-7-23,88.9,79.7,72.1,76.8,73.0,70.3,95,81,61,29.88,29.77,11,3,14,0.00
2013-7-24,91.3,79.3,71.7,77.3,72.0,67.4,93,80,54,29.80,29.72,7,1,11,0.00
2013-7-25,89.2,78.4,68.8,75.6,71.4,67.3,97,81,55,29.95,29.76,5,0,6,0.00
2013-7-26,88.6,78.5,71.2,74.7,72.0,69.4,95,81,58,30.03,29.94,10,2,12,0.00
2013-7-27,85.4,77.9,71.6,76.2,73.0,68.8,95,85,63,29.98,29.86,11,2,12,0.00
2013-7-28,88.1,78.8,69.5,75.7,71.9,67.7,95,81,60,29.97,29.88,10,1,10,0.00
2013-7-29,89.5,79.7,71.5,75.8,72.7,70.0,96,81,56,30.10,29.96,7,1,10,0.00
2013-7-30,89.7,77.5,66.4,74.8,70.4,64.9,98,81,53,30.15,30.07,6,0,8,0.00
2013-7-31,79.5,74.0,72.1,76.3,71.9,69.9,97,93,87,30.10,29.96,11,1,13,0.21
2013-8-1,88.3,78.8,72.0,76.7,73.7,70.9,97,85,65,29.97,29.84,11,2,14,0.02
2013-8-2,89.3,79.0,71.6,76.8,73.6,70.3,98,85,59,29.99,29.87,5,1,9,0.01
2013-8-3,88.6,80.7,72.6,75.9,73.2,71.1,97,80,57,30.00,29.92,6,1,11,0.00
2013-8-4,91.0,80.7,74.2,77.8,73.7,71.4,95,81,57,29.96,29.87,9,1,11,0.05
2013-8-5,89.0,79.8,71.6,75.6,72.1,68.7,96,79,56,30.01,29.92,12,2,15,0.00
2013-8-6,87.3,78.1,73.1,77.1,72.3,68.0,96,83,67,30.01,29.91,10,3,12,0.19
2013-8-7,88.2,77.0,72.1,75.1,73.1,70.8,97,89,62,30.03,29.95,9,2,13,0.06
2013-8-8,91.0,79.3,71.9,78.2,73.8,70.7,97,85,56,30.03,29.95,5,0,8,0.00
2013-8-9,91.1,81.6,73.5,78.6,74.9,72.0,96,81,57,30.06,29.96,10,3,12,0.00
2013-8-10,93.2,82.2,75.1,76.7,74.5,69.9,95,79,52,30.09,30.00,14,3,18,0.04
2013-8-11,92.2,82.0,72.4,77.2,74.3,71.1,97,79,54,30.11,30.01,9,2,12,0.01
2013-8-12,92.1,81.5,72.6,78.8,74.7,70.8,95,81,57,30.05,29.92,8,1,11,0.00
2013-8-13,89.7,81.2,73.1,76.7,73.9,71.2,94,80,58,29.96,29.80,11,2,19,0.00
2013-8-14,80.3,75.8,72.4,74.1,71.2,67.6,96,86,69,29.99,29.82,8,0,10,0.00
2013-8-15,72.3,69.7,66.8,68.5,64.8,61.9,95,85,74,30.07,29.97,6,0,7,0.09
2013-8-16,69.0,64.2,62.3,64.2,62.5,61.0,97,94,81,30.10,30.01,6,2,11,2.52
2013-8-17,67.8,65.0,62.3,66.9,64.3,61.4,98,97,97,30.12,30.05,6,0,7,2.62
2013-8-18,80.2,72.1,67.3,74.4,69.9,66.7,99,93,78,30.17,30.07,13,1,15,0.69
2013-8-19,79.3,72.5,69.1,74.6,70.9,68.3,98,95,82,30.15,30.02,5,0,6,0.60
2013-8-20,81.8,75.2,71.5,75.1,72.6,70.4,98,92,78,30.14,30.05,4,0,7,0.01
2013-8-21,87.0,75.9,71.2,76.9,72.7,70.0,98,91,68,30.19,30.08,8,1,16,0.03
2013-8-22,89.6,78.8,68.8,77.9,73.1,67.9,98,84,60,30.14,29.98,6,0,10,0.00
2013-8-23,91.2,79.0,70.4,77.0,72.8,69.3,97,83,57,30.03,29.92,6,0,8,0.00
2013-8-24,80.5,73.3,69.8,71.8,68.7,66.1,95,86,69,30.22,29.99,8,1,11,0.00
2013-8-25,82.5,72.1,61.3,66.2,62.9,59.6,97,75,47,30.32,30.21,7,0,10,0.00
2013-8-26,83.7,69.5,56.7,67.1,61.7,55.2,97,79,49,30.27,30.10,9,0,10,0.00
2013-8-27,88.3,74.5,61.8,73.7,66.1,59.5,93,77,52,30.13,29.98,6,0,6,0.00
2013-8-28,90.0,78.2,67.6,74.2,69.9,65.3,94,77,52,30.01,29.92,6,1,12,0.00
2013-8-29,93.5,81.1,70.9,78.4,73.6,69.1,95,79,55,29.94,29.84,6,0,8,0.00
2013-8-30,86.1,79.1,74.0,76.5,73.8,72.2,94,84,67,30.00,29.89,7,0,9,0.00
2013-8-31,89.3,79.1,70.5,77.1,73.8,69.0,97,85,62,29.95,29.83,7,1,17,0.00
2013-9-1,90.6,79.9,72.1,77.6,73.9,70.6,97,83,61,29.90,29.78,8,2,13,0.00
2013-9-2,89.2,78.8,71.0,76.3,72.3,69.2,95,81,61,29.91,29.80,7,1,11,0.00
2013-9-3,91.5,79.7,71.3,77.5,72.7,69.4,95,81,58,29.93,29.81,8,1,15,0.00
2013-9-4,90.3,78.8,69.7,75.3,71.8,68.0,98,81,51,30.04,29.91,5,0,7,0.00
2013-9-5,90.3,77.7,66.7,75.4,70.7,65.6,98,81,51,30.08,30.00,6,0,7,0.00
2013-9-6,87.9,75.9,67.1,71.0,67.5,64.7,97,77,53,30.11,30.01,6,0,10,0.00
2013-9-7,87.0,73.7,61.5,70.3,65.6,59.6,97,78,50,30.09,29.96,5,0,8,0.00
2013-9-8,89.9,76.9,65.0,72.7,68.1,62.9,95,77,49,29.98,29.88,5,0,8,0.00
2013-9-9,91.6,79.4,68.0,72.9,68.9,65.5,97,73,43,30.08,29.94,9,0,12,0.00
2013-9-10,90.6,79.3,68.5,73.2,70.1,66.4,96,76,49,30.20,30.08,7,0,11,0.00
2013-9-11,91.5,77.0,64.5,72.8,66.9,62.1,97,75,39,30.18,30.05,13,1,13,0.00
2013-9-12,90.2,77.0,68.4,73.1,69.3,65.1,93,79,54,30.06,29.84,8,1,13,0.00
2013-9-13,90.4,77.7,68.5,72.3,67.5,59.8,93,74,36,29.85,29.73,8,1,12,0.00
2013-9-14,83.9,72.0,62.3,63.8,58.7,52.5,83,64,49,30.05,29.83,7,1,11,0.00
2013-9-15,88.1,74.4,62.6,73.2,66.6,59.6,94,78,52,30.13,30.03,8,0,10,0.00
2013-9-16,89.1,77.0,69.3,74.7,70.6,67.7,97,82,53,30.10,29.99,5,0,8,0.00
2013-9-17,79.1,72.8,68.9,68.8,63.8,60.7,95,74,57,30.21,30.06,8,1,10,0.00
2013-9-18,81.1,70.0,62.7,62.4,59.9,57.5,91,71,47,30.23,30.10,5,0,8,0.00
2013-9-19,85.4,70.7,58.6,65.9,61.6,56.6,95,75,49,30.15,30.04,7,1,11,0.00
2013-9-20,87.4,74.2,61.8,69.1,64.8,59.2,93,75,49,30.05,29.89,7,1,11,0.00
2013-9-21,79.7,73.1,68.6,72.9,69.2,66.1,96,88,76,29.90,29.65,13,4,25,0.70
2013-9-22,81.0,70.1,61.4,67.9,61.7,55.0,98,78,44,29.85,29.70,8,1,11,0.01
2013-9-23,81.7,68.0,55.1,63.1,59.3,53.3,96,76,46,30.00,29.84,8,0,13,0.00
2013-9-24,74.7,67.7,60.5,66.2,62.5,58.0,96,84,66,30.03,29.88,7,0,9,0.15
2013-9-25,72.8,66.4,63.1,65.2,63.6,62.0,97,91,74,29.88,29.80,4,0,8,0.27
2013-9-26,77.6,67.3,60.3,64.6,61.9,58.3,97,84,58,29.98,29.83,8,1,10,0.00
2013-9-27,78.0,65.5,54.7,60.3,57.2,53.0,96,77,48,30.11,29.98,10,1,13,0.00
2013-9-28,75.3,64.7,53.6,57.9,55.4,51.3,96,74,50,30.20,30.09,10,1,11,0.00
2013-9-29,75.5,64.5,57.4,60.6,56.4,53.3,93,76,50,30.12,29.99,6,0,10,0.00
2013-9-30,76.9,63.2,51.1,61.9,56.7,49.4,98,81,53,30.08,29.97,5,0,7,0.00
2013-10-1,81.6,66.6,53.5,63.1,58.1,51.3,96,77,45,30.13,30.02,5,0,8,0.00
2013-10-2,83.9,68.8,55.5,68.6,61.1,53.6,95,79,49,30.13,30.03,4,0,7,0.00
2013-10-3,85.2,70.9,59.2,66.0,62.0,56.6,94,76,46,30.11,30.03,6,0,8,0.00
2013-10-4,87.4,72.1,58.3,67.0,62.5,56.3,95,75,44,30.13,30.04,6,0,7,0.00
2013-10-5,88.1,72.8,59.0,68.1,63.1,57.0,97,75,42,30.10,29.98,7,1,10,0.00
2013-10-6,86.0,73.7,60.6,69.3,65.2,58.7,96,77,49,30.01,29.83,11,2,14,0.00
2013-10-7,78.3,74.7,70.1,72.1,70.3,63.3,96,86,78,29.91,29.77,8,2,11,0.00
2013-10-8,69.9,63.2,58.2,63.3,54.9,52.4,85,75,66,30.12,29.89,10,2,13,0.00
2013-10-9,76.2,63.5,52.5,53.5,50.2,45.8,87,64,38,30.17,30.06,11,2,13,0.00
2013-10-10,78.3,61.2,46.9,57.1,51.2,44.7,95,73,40,30.10,29.96,8,1,12,0.00
2013-10-11,83.4,66.2,52.2,62.1,56.4,49.7,93,74,44,30.00,29.89,10,1,12,0.00
2013-10-12,82.6,66.9,53.0,64.5,58.7,50.5,95,77,44,30.04,29.92,5,1,8,0.00
2013-10-13,75.8,69.1,64.0,65.9,63.3,60.8,92,82,69,30.14,30.03,7,1,10,0.00
2013-10-14,69.1,66.0,61.0,63.5,62.2,58.7,95,87,81,30.17,30.09,7,1,10,0.00
2013-10-15,73.9,66.1,60.4,61.5,59.6,57.7,92,80,59,30.13,30.00,7,1,12,0.00
2013-10-16,79.3,65.5,53.0,62.4,58.3,51.3,97,79,50,30.04,29.93,6,0,11,0.00
2013-10-17,76.7,68.1,60.2,68.2,63.5,57.9,96,86,67,29.95,29.85,13,1,13,0.03
2013-10-18,76.7,68.6,62.8,67.5,64.0,58.3,97,86,66,29.97,29.86,7,0,9,0.01
2013-10-19,67.4,62.5,58.2,58.9,56.4,51.6,93,81,58,29.94,29.88,9,1,12,0.00
2013-10-20,74.0,59.0,45.8,55.2,50.1,43.9,97,76,40,30.04,29.92,7,1,9,0.00
2013-10-21,73.4,58.5,43.7,58.1,51.6,41.8,97,80,52,30.11,29.98,6,0,7,0.00
2013-10-22,67.2,62.4,58.8,61.9,58.6,55.7,96,88,75,30.02,29.81,5,0,6,0.00
2013-10-23,68.9,58.3,45.1,60.2,46.4,36.5,96,68,33,30.05,29.76,11,2,25,0.00
2013-10-24,67.0,50.5,35.7,45.0,37.9,33.1,91,66,33,30.18,30.05,10,1,11,0.00
2013-10-25,59.5,47.6,37.1,41.5,36.8,31.3,92,69,37,30.33,30.14,9,1,12,0.00
2013-10-26,62.8,45.2,29.4,39.0,33.6,26.8,92,68,34,30.32,30.13,8,1,12,0.00
2013-10-27,73.3,58.2,44.9,54.8,46.1,37.2,87,65,49,30.13,30.05,11,1,13,0.00
2013-10-28,71.8,61.5,54.7,57.4,54.7,52.6,94,80,54,30.24,30.10,6,0,7,0.00
2013-10-29,74.8,60.0,49.0,57.8,52.7,47.1,96,79,51,30.32,30.22,6,0,11,0.00
2013-10-30,80.2,64.2,52.1,59.3,55.1,49.7,94,75,45,30.29,30.14,8,1,12,0.00
2013-10-31,78.8,68.0,56.4,64.7,59.7,53.4,92,76,60,30.15,29.89,12,4,19,0.00
2013-11-1,70.2,65.6,62.0,67.0,62.6,60.6,97,90,74,29.89,29.69,13,4,19,0.99
2013-11-2,72.2,59.4,47.9,61.1,49.6,41.0,97,74,36,29.99,29.74,11,1,18,0.06
2013-11-3,66.7,51.0,37.9,45.2,41.2,36.1,96,73,35,30.30,29.98,8,1,9,0.00
2013-11-4,64.6,50.9,37.2,40.9,38.2,35.0,97,65,37,30.46,30.31,10,0,12,0.00
2013-11-5,66.4,52.7,39.7,49.1,43.3,35.1,85,71,51,30.47,30.34,8,2,11,0.00
2013-11-6,75.1,61.2,51.5,59.4,53.8,48.4,92,78,57,30.33,30.09,5,0,10,0.00
2013-11-7,75.7,60.0,44.3,62.4,50.8,38.9,96,75,37,30.13,29.93,8,1,14,0.00
2013-11-8,63.0,46.4,33.6,37.3,33.4,28.2,93,66,28,30.31,30.13,6,1,11,0.00
2013-11-9,61.9,48.0,32.8,43.2,36.3,30.7,95,68,33,30.35,30.21,7,1,10,0.00
2013-11-10,73.0,56.5,46.7,46.0,42.0,37.8,84,62,30,30.24,30.12,4,0,8,0.00
2013-11-11,66.8,50.7,39.4,41.4,37.4,33.9,92,64,31,30.30,30.15,4,0,8,0.00
2013-11-12,71.5,51.5,35.5,44.5,36.1,18.8,92,60,33,30.41,30.02,16,3,23,0.00
2013-11-13,51.2,37.1,28.0,23.7,19.5,14.9,81,52,24,30.55,30.42,8,2,11,0.00
2013-11-14,60.5,39.7,22.4,31.4,24.1,19.2,93,61,21,30.50,30.30,7,1,10,0.00
2013-11-15,59.8,48.3,32.4,51.5,42.4,27.1,93,80,68,30.31,30.14,1,0,7,0.00
2013-11-16,70.2,59.2,52.7,59.3,54.9,50.4,96,86,68,30.23,30.11,4,0,7,0.00
2013-11-17,68.6,63.8,57.2,67.4,61.5,55.2,97,92,83,30.12,29.91,9,2,13,0.00
2013-11-18,81.0,68.9,49.2,68.5,53.3,34.8,96,63,27,29.96,29.84,10,2,13,0.04
2013-11-19,62.1,48.8,34.2,37.3,31.7,27.6,91,56,29,30.19,29.96,8,1,10,0.00
2013-11-20,55.3,49.1,40.4,39.7,34.5,30.7,74,58,46,30.35,30.18,7,2,14,0.00
2013-11-21,56.2,51.1,48.7,49.9,44.5,38.9,97,79,65,30.40,30.32,6,1,8,0.04
2013-11-22,62.0,55.6,50.5,59.5,54.4,49.4,100,95,91,30.34,30.12,0,0,0,0.00
2013-11-23,65.5,59.6,45.4,59.9,54.4,35.0,98,84,49,30.16,30.01,5,1,10,0.10
2013-11-24,47.8,38.9,31.0,34.8,21.5,12.9,86,52,25,30.48,30.16,11,2,13,0.00
2013-11-25,48.7,39.6,28.7,26.4,18.9,11.2,56,44,28,30.51,30.24,8,0,13,0.00
2013-11-26,44.8,40.5,35.7,44.2,37.1,26.3,98,89,49,30.24,29.60,6,1,8,0.72
2013-11-27,47.4,41.3,28.0,46.8,35.1,22.5,98,80,50,30.23,29.55,10,2,20,0.56
2013-11-28,50.0,33.9,21.2,31.2,25.3,18.8,92,73,39,30.48,30.23,6,0,9,0.19
2013-11-29,59.4,38.9,24.1,34.6,28.1,21.8,94,71,27,30.53,30.43,6,0,8,0.01
2013-11-30,50.8,41.9,29.7,35.2,30.7,26.8,93,65,49,30.57,30.33,7,1,10,0.00
2013-12-1,55.5,45.0,37.1,45.5,38.1,32.0,95,77,63,30.31,30.00,4,0,4,0.00
2013-12-2,61.0,50.1,39.6,51.4,45.7,37.7,99,85,63,29.97,29.80,5,0,8,0.01
2013-12-3,60.3,55.4,50.6,57.6,53.9,49.8,97,95,89,29.92,29.83,8,2,11,0.53
2013-12-4,69.2,62.0,57.6,64.7,60.5,56.8,98,95,83,30.03,29.90,8,2,9,0.53
2013-12-5,70.2,65.4,60.8,68.2,64.3,60.1,98,96,93,30.08,29.99,9,3,14,0.53
2013-12-6,78.9,69.4,61.2,67.0,64.0,59.5,94,84,64,30.08,29.97,18,6,21,0.01
2013-12-7,69.5,57.9,47.8,65.6,56.1,45.9,97,94,85,30.32,30.00,10,1,15,0.12
2013-12-8,47.6,43.2,40.0,45.7,42.2,39.2,100,96,93,30.33,30.23,5,1,7,0.07
2013-12-9,49.5,44.0,39.6,49.0,43.4,38.8,99,98,97,30.23,30.02,4,0,6,0.04
2013-12-10,57.6,49.8,33.3,57.3,44.4,30.7,99,83,47,30.31,29.91,15,2,22,0.04
2013-12-11,55.1,39.7,27.1,39.0,32.2,25.3,95,77,46,30.44,30.30,8,0,8,0.46
2013-12-12,53.4,39.4,28.9,34.0,29.5,25.3,92,71,34,30.41,30.28,4,0,7,0.00
2013-12-13,58.0,41.5,25.6,38.7,30.7,23.3,93,70,33,30.36,30.20,9,1,12,0.00
2013-12-14,57.6,48.2,43.4,56.5,45.3,37.0,97,90,74,30.22,29.80,15,2,20,0.81
2013-12-15,53.9,46.5,33.0,49.6,40.4,30.1,98,80,55,30.13,29.76,12,2,17,0.06
2013-12-16,59.8,42.7,29.0,36.9,32.1,27.2,94,70,38,30.21,30.13,10,1,15,0.00
2013-12-17,63.0,49.9,37.0,38.0,34.5,31.4,81,58,36,30.20,30.04,13,3,19,0.00
2013-12-18,57.3,45.0,32.2,36.9,26.5,16.8,83,52,21,30.28,30.08,9,1,10,0.00
2013-12-19,59.5,36.3,27.6,33.6,27.6,25.0,92,75,30,30.35,30.27,7,0,8,0.00